Time,TemperatureF,DewpointF,PressureIn,WindDirection,WindDirectionDegrees,WindSpeedMPH,WindSpeedGustMPH,Humidity,HourlyPrecipIn,Conditions,Clouds,dailyrainin,SoftwareType,DateUTC
2013-06-01 00:02:00,36.5,14.5,31.03,NE,45,3.0,4.0,40,0.00,,,0.00,meteohub,2013-06-01 06:02:00,
2013-06-01 00:07:00,36.5,14.5,31.02,NE,45,3.0,4.0,40,0.00,,,0.00,meteohub,2013-06-01 06:07:00,
2013-06-01 00:12:00,36.0,14.5,31.02,NE,45,2.0,3.0,41,0.00,,,0.00,meteohub,2013-06-01 06:12:00,
2013-06-01 00:17:00,35.8,14.4,31.03,NE,45,2.0,4.0,41,0.00,,,0.00,meteohub,2013-06-01 06:17:00,
2013-06-01 00:22:00,35.8,14.9,31.02,North,0,2.0,4.0,42,0.00,,,0.00,meteohub,2013-06-01 06:22:00,
2013-06-01 00:27:00,35.4,15.1,31.03,East,90,2.0,3.0,43,0.00,,,0.00,meteohub,2013-06-01 06:27:00,
2013-06-01 00:32:00,35.4,15.6,31.03,North,0,2.0,3.0,44,0.00,,,0.00,meteohub,2013-06-01 06:32:00,
2013-06-01 00:37:00,35.2,15.4,31.03,North,0,2.0,3.0,44,0.00,,,0.00,meteohub,2013-06-01 06:37:00,
2013-06-01 00:42:00,35.2,15.4,31.03,North,0,4.0,4.0,44,0.00,,,0.00,meteohub,2013-06-01 06:42:00,
2013-06-01 00:47:00,35.4,16.2,31.03,North,0,2.0,4.0,45,0.00,,,0.00,meteohub,2013-06-01 06:47:00,
2013-06-01 00:52:00,35.4,15.6,31.03,NE,45,1.0,4.0,44,0.00,,,0.00,meteohub,2013-06-01 06:52:00,
2013-06-01 00:57:00,35.4,15.6,31.03,North,0,3.0,4.0,44,0.00,,,0.00,meteohub,2013-06-01 06:57:00,
2013-06-01 01:02:00,35.4,15.6,31.03,North,0,2.0,4.0,44,0.00,,,0.00,meteohub,2013-06-01 07:02:00,
2013-06-01 01:07:00,35.4,16.2,31.03,North,0,2.0,4.0,45,0.00,,,0.00,meteohub,2013-06-01 07:07:00,
2013-06-01 01:12:00,35.4,16.2,31.03,NE,45,4.0,4.0,45,0.00,,,0.00,meteohub,2013-06-01 07:12:00,
2013-06-01 01:17:00,35.4,16.7,31.03,NE,45,4.0,5.0,46,0.00,,,0.00,meteohub,2013-06-01 07:17:00,
2013-06-01 01:21:00,35.6,16.3,31.03,North,0,4.0,5.0,45,0.00,,,0.00,meteohub,2013-06-01 07:21:00,
2013-06-01 01:26:00,35.6,16.3,31.03,NE,45,4.0,5.0,45,0.00,,,0.00,meteohub,2013-06-01 07:26:00,
2013-06-01 01:31:00,35.4,16.7,31.03,NE,45,3.0,4.0,46,0.00,,,0.00,meteohub,2013-06-01 07:31:00,
2013-06-01 01:36:00,35.1,16.3,31.03,North,0,3.0,4.0,46,0.00,,,0.00,meteohub,2013-06-01 07:36:00,
2013-06-01 01:41:00,34.9,16.7,31.03,NE,45,3.0,4.0,47,0.00,,,0.00,meteohub,2013-06-01 07:41:00,
2013-06-01 01:46:00,34.9,16.7,31.03,NE,45,3.0,4.0,47,0.00,,,0.00,meteohub,2013-06-01 07:46:00,
2013-06-01 01:51:00,34.7,17.1,31.03,NE,45,3.0,4.0,48,0.00,,,0.00,meteohub,2013-06-01 07:51:00,
2013-06-01 01:56:00,34.7,17.1,31.04,NE,45,4.0,4.0,48,0.00,,,0.00,meteohub,2013-06-01 07:56:00,
2013-06-01 02:01:00,34.5,17.2,31.03,NE,45,6.0,6.0,49,0.00,,,0.00,meteohub,2013-06-01 08:01:00,
2013-06-01 02:06:00,34.5,17.2,31.03,NE,45,6.0,6.0,49,0.00,,,0.00,meteohub,2013-06-01 08:06:00,
2013-06-01 02:11:00,34.0,16.9,31.04,NE,45,4.0,6.0,49,0.00,,,0.00,meteohub,2013-06-01 08:11:00,
2013-06-01 02:16:00,34.0,16.9,31.03,NE,45,4.0,6.0,49,0.00,,,0.00,meteohub,2013-06-01 08:16:00,
2013-06-01 02:21:00,34.0,16.9,31.03,NE,45,4.0,6.0,49,0.00,,,0.00,meteohub,2013-06-01 08:21:00,
2013-06-01 02:26:00,33.8,16.7,31.03,North,0,4.0,4.0,49,0.00,,,0.00,meteohub,2013-06-01 08:26:00,
2013-06-01 02:31:00,33.8,17.1,31.03,NE,45,4.0,4.0,50,0.00,,,0.00,meteohub,2013-06-01 08:31:00,
2013-06-01 02:36:00,33.8,17.1,31.03,West,270,3.0,5.0,50,0.00,,,0.00,meteohub,2013-06-01 08:36:00,
2013-06-01 02:41:00,33.8,17.1,31.04,North,0,2.0,5.0,50,0.00,,,0.00,meteohub,2013-06-01 08:41:00,
2013-06-01 02:46:00,33.8,16.7,31.04,NE,45,6.0,6.0,49,0.00,,,0.00,meteohub,2013-06-01 08:46:00,
2013-06-01 02:51:00,33.8,17.1,31.04,North,0,3.0,6.0,50,0.00,,,0.00,meteohub,2013-06-01 08:51:00,
2013-06-01 02:56:00,33.8,17.1,31.04,NW,315,3.0,6.0,50,0.00,,,0.00,meteohub,2013-06-01 08:56:00,
2013-06-01 03:01:00,33.6,17.4,31.04,North,0,2.0,6.0,51,0.00,,,0.00,meteohub,2013-06-01 09:01:00,
2013-06-01 03:06:00,33.6,17.4,31.04,North,0,2.0,5.0,51,0.00,,,0.00,meteohub,2013-06-01 09:06:00,
2013-06-01 03:11:00,33.3,17.1,31.04,NW,315,2.0,4.0,51,0.00,,,0.00,meteohub,2013-06-01 09:11:00,
2013-06-01 03:16:00,33.3,17.6,31.04,North,0,4.0,4.0,52,0.00,,,0.00,meteohub,2013-06-01 09:16:00,
2013-06-01 03:21:00,33.1,17.4,31.05,North,0,4.0,6.0,52,0.00,,,0.00,meteohub,2013-06-01 09:21:00,
2013-06-01 03:26:00,33.3,17.6,31.05,North,0,3.0,6.0,52,0.00,,,0.00,meteohub,2013-06-01 09:26:00,
2013-06-01 03:31:00,33.3,17.6,31.05,North,0,3.0,6.0,52,0.00,,,0.00,meteohub,2013-06-01 09:31:00,
2013-06-01 03:36:00,33.1,17.4,31.05,NE,45,3.0,4.0,52,0.00,,,0.00,meteohub,2013-06-01 09:36:00,
2013-06-01 03:41:00,32.9,17.6,31.05,NE,45,4.0,4.0,53,0.00,,,0.00,meteohub,2013-06-01 09:41:00,
2013-06-01 03:46:00,33.1,17.8,31.05,NE,45,2.0,4.0,53,0.00,,,0.00,meteohub,2013-06-01 09:46:00,
2013-06-01 03:51:00,32.9,17.6,31.05,NW,315,2.0,4.0,53,0.00,,,0.00,meteohub,2013-06-01 09:51:00,
2013-06-01 03:56:00,32.9,17.6,31.05,North,0,3.0,4.0,53,0.00,,,0.00,meteohub,2013-06-01 09:56:00,
2013-06-01 04:01:00,32.7,18.0,31.05,North,0,2.0,3.0,54,0.00,,,0.00,meteohub,2013-06-01 10:01:00,
2013-06-01 04:06:00,32.7,18.0,31.05,North,0,2.0,3.0,54,0.00,,,0.00,meteohub,2013-06-01 10:06:00,
2013-06-01 04:11:00,32.4,17.6,31.05,North,0,2.0,3.0,54,0.00,,,0.00,meteohub,2013-06-01 10:11:00,
2013-06-01 04:16:00,32.2,17.8,31.05,North,0,3.0,3.0,55,0.00,,,0.00,meteohub,2013-06-01 10:16:00,
2013-06-01 04:21:00,32.0,17.6,31.05,NW,315,2.0,3.0,55,0.00,,,0.00,meteohub,2013-06-01 10:21:00,
2013-06-01 04:26:00,32.0,17.6,31.05,North,0,2.0,3.0,55,0.00,,,0.00,meteohub,2013-06-01 10:26:00,
2013-06-01 04:31:00,31.8,18.0,31.05,North,0,2.0,3.0,56,0.00,,,0.00,meteohub,2013-06-01 10:31:00,
2013-06-01 04:36:00,31.6,18.1,31.05,NE,45,3.0,4.0,57,0.00,,,0.00,meteohub,2013-06-01 10:36:00,
2013-06-01 04:41:00,31.6,18.5,31.05,NE,45,4.0,4.0,58,0.00,,,0.00,meteohub,2013-06-01 10:41:00,
2013-06-01 04:46:00,31.8,19.0,31.05,North,0,2.0,5.0,59,0.00,,,0.00,meteohub,2013-06-01 10:46:00,
2013-06-01 04:51:00,31.8,18.7,31.05,NE,45,2.0,5.0,58,0.00,,,0.00,meteohub,2013-06-01 10:51:00,
2013-06-01 04:56:00,31.8,19.0,31.05,North,0,2.0,5.0,59,0.00,,,0.00,meteohub,2013-06-01 10:56:00,
2013-06-01 05:01:00,31.6,18.5,31.06,West,270,1.0,3.0,58,0.00,,,0.00,meteohub,2013-06-01 11:01:00,
2013-06-01 05:06:00,31.3,18.7,31.06,NE,45,3.0,3.0,59,0.00,,,0.00,meteohub,2013-06-01 11:06:00,
2013-06-01 05:11:00,30.9,18.7,31.06,NW,315,1.0,4.0,60,0.00,,,0.00,meteohub,2013-06-01 11:11:00,
2013-06-01 05:16:00,30.7,18.5,31.06,North,0,1.0,4.0,60,0.00,,,0.00,meteohub,2013-06-01 11:16:00,
2013-06-01 05:21:00,30.4,18.1,31.06,North,0,1.0,4.0,60,0.00,,,0.00,meteohub,2013-06-01 11:21:00,
2013-06-01 05:26:00,30.2,18.3,31.07,North,0,0.0,2.0,61,0.00,,,0.00,meteohub,2013-06-01 11:26:00,
2013-06-01 05:31:00,29.8,18.5,31.06,North,0,0.0,1.0,62,0.00,,,0.00,meteohub,2013-06-01 11:31:00,
2013-06-01 05:36:00,29.7,18.3,31.06,South,180,2.0,2.0,62,0.00,,,0.00,meteohub,2013-06-01 11:36:00,
2013-06-01 05:41:00,29.3,18.0,31.06,East,90,2.0,4.0,62,0.00,,,0.00,meteohub,2013-06-01 11:41:00,
2013-06-01 05:46:00,29.3,18.3,31.07,East,90,4.0,4.0,63,0.00,,,0.00,meteohub,2013-06-01 11:46:00,
2013-06-01 05:51:00,29.1,18.5,31.07,ENE,68,4.0,4.0,64,0.00,,,0.00,meteohub,2013-06-01 11:51:00,
2013-06-01 05:56:00,29.3,18.7,31.07,East,90,3.0,4.0,64,0.00,,,0.00,meteohub,2013-06-01 11:56:00,
2013-06-01 06:01:00,29.3,18.7,31.08,East,90,5.0,5.0,64,0.00,,,0.00,meteohub,2013-06-01 12:01:00,
2013-06-01 06:06:00,29.3,18.7,31.08,East,90,5.0,5.0,64,0.00,,,0.00,meteohub,2013-06-01 12:06:00,
2013-06-01 06:11:00,29.7,19.4,31.08,East,90,4.0,5.0,65,0.00,,,0.00,meteohub,2013-06-01 12:11:00,
2013-06-01 06:16:00,29.7,19.4,31.08,East,90,4.0,5.0,65,0.00,,,0.00,meteohub,2013-06-01 12:16:00,
2013-06-01 06:21:00,30.0,19.8,31.08,East,90,4.0,5.0,65,0.00,,,0.00,meteohub,2013-06-01 12:21:00,
2013-06-01 06:26:00,30.2,19.9,31.08,NE,45,3.0,4.0,65,0.00,,,0.00,meteohub,2013-06-01 12:26:00,
2013-06-01 06:31:00,30.2,19.9,31.08,East,90,2.0,4.0,65,0.00,,,0.00,meteohub,2013-06-01 12:31:00,
2013-06-01 06:36:00,30.4,19.9,31.09,SE,135,1.0,4.0,65,0.00,,,0.00,meteohub,2013-06-01 12:36:00,
2013-06-01 06:41:00,30.6,20.1,31.08,SE,135,2.0,3.0,65,0.00,,,0.00,meteohub,2013-06-01 12:41:00,
2013-06-01 06:46:00,30.7,20.3,31.09,SE,135,1.0,2.0,65,0.00,,,0.00,meteohub,2013-06-01 12:46:00,
2013-06-01 06:51:00,31.1,21.0,31.09,SE,135,3.0,3.0,66,0.00,,,0.00,meteohub,2013-06-01 12:51:00,
2013-06-01 06:56:00,31.6,21.6,31.09,South,180,2.0,3.0,66,0.00,,,0.00,meteohub,2013-06-01 12:56:00,
2013-06-01 07:01:00,32.2,21.7,31.09,South,180,2.0,3.0,65,0.00,,,0.00,meteohub,2013-06-01 13:01:00,
2013-06-01 07:06:00,32.5,22.1,31.09,South,180,1.0,3.0,65,0.00,,,0.00,meteohub,2013-06-01 13:06:00,
2013-06-01 07:11:00,32.9,22.5,31.10,South,180,0.0,2.0,65,0.00,,,0.00,meteohub,2013-06-01 13:11:00,
2013-06-01 07:16:00,33.4,23.0,31.09,South,180,1.0,2.0,65,0.00,,,0.00,meteohub,2013-06-01 13:16:00,
2013-06-01 07:21:00,34.0,23.0,31.10,North,0,2.0,2.0,64,0.00,,,0.00,meteohub,2013-06-01 13:21:00,
2013-06-01 07:26:00,34.5,23.5,31.10,SW,225,1.0,2.0,64,0.00,,,0.00,meteohub,2013-06-01 13:26:00,
2013-06-01 07:31:00,35.1,23.7,31.10,North,0,0.0,2.0,63,0.00,,,0.00,meteohub,2013-06-01 13:31:00,
2013-06-01 07:36:00,35.8,24.1,31.10,South,180,0.0,2.0,62,0.00,,,0.00,meteohub,2013-06-01 13:36:00,
2013-06-01 07:41:00,36.5,23.9,31.10,South,180,2.0,2.0,60,0.00,,,0.00,meteohub,2013-06-01 13:41:00,
2013-06-01 07:46:00,37.4,25.9,31.10,South,180,0.0,3.0,63,0.00,,,0.00,meteohub,2013-06-01 13:46:00,
2013-06-01 07:51:00,37.9,26.1,31.10,SE,135,3.0,4.0,62,0.00,,,0.00,meteohub,2013-06-01 13:51:00,
2013-06-01 07:57:00,38.7,26.8,31.10,NE,45,0.0,4.0,62,0.00,,,0.00,meteohub,2013-06-01 13:57:00,
2013-06-01 08:02:00,39.0,26.2,31.09,NW,315,0.0,4.0,60,0.00,,,0.00,meteohub,2013-06-01 14:02:00,
2013-06-01 08:07:00,39.0,26.2,31.10,NW,315,0.0,3.0,60,0.00,,,0.00,meteohub,2013-06-01 14:07:00,
2013-06-01 08:12:00,40.1,25.7,31.10,South,180,2.0,2.0,56,0.00,,,0.00,meteohub,2013-06-01 14:12:00,
2013-06-01 08:16:00,40.5,26.1,31.10,SW,225,2.0,2.0,56,0.00,,,0.00,meteohub,2013-06-01 14:16:00,
2013-06-01 08:21:00,40.6,25.7,31.10,South,180,0.0,2.0,55,0.00,,,0.00,meteohub,2013-06-01 14:21:00,
2013-06-01 08:26:00,41.0,26.1,31.10,NW,315,0.0,2.0,55,0.00,,,0.00,meteohub,2013-06-01 14:26:00,
2013-06-01 08:31:00,41.4,25.9,31.10,NE,45,0.0,2.0,54,0.00,,,0.00,meteohub,2013-06-01 14:31:00,
2013-06-01 08:36:00,41.5,25.7,31.10,NE,45,2.0,2.0,53,0.00,,,0.00,meteohub,2013-06-01 14:36:00,
2013-06-01 08:42:00,41.7,25.3,31.10,North,0,2.0,4.0,52,0.00,,,0.00,meteohub,2013-06-01 14:42:00,
2013-06-01 08:47:00,41.9,25.5,31.11,North,0,2.0,4.0,52,0.00,,,0.00,meteohub,2013-06-01 14:47:00,
2013-06-01 08:52:00,42.3,25.9,31.10,NW,315,3.0,4.0,52,0.00,,,0.00,meteohub,2013-06-01 14:52:00,
2013-06-01 08:57:00,42.4,26.1,31.10,NE,45,2.0,4.0,52,0.00,,,0.00,meteohub,2013-06-01 14:57:00,
2013-06-01 09:02:00,42.8,25.5,31.10,NW,315,4.0,4.0,50,0.00,,,0.00,meteohub,2013-06-01 15:02:00,
2013-06-01 09:07:00,43.2,26.2,31.10,NW,315,4.0,6.0,51,0.00,,,0.00,meteohub,2013-06-01 15:07:00,
2013-06-01 09:12:00,43.5,26.1,31.10,North,0,4.0,6.0,50,0.00,,,0.00,meteohub,2013-06-01 15:12:00,
2013-06-01 09:17:00,45.0,27.0,31.10,East,90,3.0,9.0,49,0.00,,,0.00,meteohub,2013-06-01 15:17:00,
2013-06-01 09:21:00,45.9,27.3,31.10,North,0,4.0,10.0,48,0.00,,,0.00,meteohub,2013-06-01 15:21:00,
2013-06-01 09:27:00,46.6,27.5,31.10,North,0,10.0,10.0,47,0.00,,,0.00,meteohub,2013-06-01 15:27:00,
2013-06-01 09:32:00,46.9,27.3,31.10,South,180,6.0,10.0,46,0.00,,,0.00,meteohub,2013-06-01 15:32:00,
2013-06-01 09:37:00,47.5,27.1,31.09,East,90,8.0,10.0,45,0.00,,,0.00,meteohub,2013-06-01 15:37:00,
2013-06-01 09:42:00,47.8,27.5,31.10,North,0,8.0,10.0,45,0.00,,,0.00,meteohub,2013-06-01 15:42:00,
2013-06-01 09:47:00,48.2,27.3,31.10,NE,45,4.0,11.0,44,0.00,,,0.00,meteohub,2013-06-01 15:47:00,
2013-06-01 09:52:00,48.0,26.6,31.10,WNW,293,5.0,11.0,43,0.00,,,0.00,meteohub,2013-06-01 15:52:00,
2013-06-01 09:57:00,47.3,26.4,31.10,WNW,293,8.0,10.0,44,0.00,,,0.00,meteohub,2013-06-01 15:57:00,
2013-06-01 10:01:00,46.8,26.1,31.09,North,0,8.0,8.0,44,0.00,,,0.00,meteohub,2013-06-01 16:01:00,
2013-06-01 10:06:00,46.8,26.1,31.10,North,0,8.0,8.0,44,0.00,,,0.00,meteohub,2013-06-01 16:06:00,
2013-06-01 10:12:00,46.8,26.6,31.09,SW,225,4.0,8.0,45,0.00,,,0.00,meteohub,2013-06-01 16:12:00,
2013-06-01 10:17:00,47.1,26.8,31.09,NE,45,4.0,8.0,45,0.00,,,0.00,meteohub,2013-06-01 16:17:00,
2013-06-01 10:21:00,46.9,26.2,31.09,North,0,5.0,8.0,44,0.00,,,0.00,meteohub,2013-06-01 16:21:00,
2013-06-01 10:26:00,47.7,27.3,31.10,North,0,5.0,9.0,45,0.00,,,0.00,meteohub,2013-06-01 16:26:00,
2013-06-01 10:31:00,48.2,26.8,31.09,NW,315,7.0,9.0,43,0.00,,,0.00,meteohub,2013-06-01 16:31:00,
2013-06-01 10:36:00,49.1,27.5,31.09,NW,315,4.0,9.0,43,0.00,,,0.00,meteohub,2013-06-01 16:36:00,
2013-06-01 10:41:00,50.4,28.2,31.08,NE,45,8.0,9.0,42,0.00,,,0.00,meteohub,2013-06-01 16:41:00,
2013-06-01 10:46:00,50.7,27.9,31.09,NE,45,7.0,9.0,41,0.00,,,0.00,meteohub,2013-06-01 16:46:00,
2013-06-01 10:51:00,51.1,27.7,31.09,North,0,7.0,9.0,40,0.00,,,0.00,meteohub,2013-06-01 16:51:00,
2013-06-01 10:56:00,51.8,28.2,31.08,North,0,9.0,9.0,40,0.00,,,0.00,meteohub,2013-06-01 16:56:00,
2013-06-01 11:01:00,52.7,28.4,31.09,North,0,6.0,9.0,39,0.00,,,0.00,meteohub,2013-06-01 17:01:00,
2013-06-01 11:06:00,53.2,28.9,31.08,NW,315,8.0,9.0,39,0.00,,,0.00,meteohub,2013-06-01 17:06:00,
2013-06-01 11:11:00,53.6,28.6,31.08,NE,45,7.0,10.0,38,0.00,,,0.00,meteohub,2013-06-01 17:11:00,
2013-06-01 11:16:00,54.0,28.2,31.08,North,0,6.0,10.0,37,0.00,,,0.00,meteohub,2013-06-01 17:16:00,
2013-06-01 11:21:00,53.8,27.5,31.08,North,0,8.0,9.0,36,0.00,,,0.00,meteohub,2013-06-01 17:21:00,
2013-06-01 11:27:00,53.1,28.0,31.08,NE,45,5.0,11.0,38,0.00,,,0.00,meteohub,2013-06-01 17:27:00,
2013-06-01 11:32:00,53.2,28.9,31.08,NW,315,11.0,11.0,39,0.00,,,0.00,meteohub,2013-06-01 17:32:00,
2013-06-01 11:37:00,53.4,27.9,31.08,SW,225,8.0,11.0,37,0.00,,,0.00,meteohub,2013-06-01 17:37:00,
2013-06-01 11:42:00,53.8,27.5,31.08,ENE,68,8.0,11.0,36,0.00,,,0.00,meteohub,2013-06-01 17:42:00,
2013-06-01 11:47:00,54.1,27.1,31.09,North,0,6.0,11.0,35,0.00,,,0.00,meteohub,2013-06-01 17:47:00,
2013-06-01 11:52:00,54.9,26.2,31.09,North,0,8.0,10.0,33,0.00,,,0.00,meteohub,2013-06-01 17:52:00,
2013-06-01 11:57:00,55.0,24.1,31.09,West,270,8.0,11.0,30,0.00,,,0.00,meteohub,2013-06-01 17:57:00,
2013-06-01 12:02:00,54.7,23.9,31.08,North,0,9.0,11.0,30,0.00,,,0.00,meteohub,2013-06-01 18:02:00,
2013-06-01 12:07:00,54.7,23.9,31.08,North,0,9.0,11.0,30,0.00,,,0.00,meteohub,2013-06-01 18:07:00,
2013-06-01 12:12:00,54.9,24.1,31.08,NW,315,7.0,11.0,30,0.00,,,0.00,meteohub,2013-06-01 18:12:00,
2013-06-01 12:17:00,55.4,26.1,31.08,NW,315,5.0,9.0,32,0.00,,,0.00,meteohub,2013-06-01 18:17:00,
2013-06-01 12:22:00,56.3,27.5,31.08,North,0,7.0,9.0,33,0.00,,,0.00,meteohub,2013-06-01 18:22:00,
2013-06-01 12:27:00,57.2,26.8,31.08,NW,315,8.0,8.0,31,0.00,,,0.00,meteohub,2013-06-01 18:27:00,
2013-06-01 12:32:00,57.7,26.4,31.08,WNW,293,7.0,9.0,30,0.00,,,0.00,meteohub,2013-06-01 18:32:00,
2013-06-01 12:37:00,57.6,26.4,31.08,SE,135,4.0,9.0,30,0.00,,,0.00,meteohub,2013-06-01 18:37:00,
2013-06-01 12:42:00,57.4,25.3,31.08,West,270,4.0,8.0,29,0.00,,,0.00,meteohub,2013-06-01 18:42:00,
2013-06-01 12:47:00,56.5,24.6,31.08,North,0,8.0,12.0,29,0.00,,,0.00,meteohub,2013-06-01 18:47:00,
2013-06-01 12:52:00,56.1,25.9,31.08,NE,45,5.0,12.0,31,0.00,,,0.00,meteohub,2013-06-01 18:52:00,
2013-06-01 12:57:00,56.5,26.2,31.07,East,90,3.0,12.0,31,0.00,,,0.00,meteohub,2013-06-01 18:57:00,
2013-06-01 13:02:00,57.0,27.5,31.08,NW,315,5.0,8.0,32,0.00,,,0.00,meteohub,2013-06-01 19:02:00,
2013-06-01 13:07:00,58.1,26.1,31.07,East,90,5.0,8.0,29,0.00,,,0.00,meteohub,2013-06-01 19:07:00,
2013-06-01 13:12:00,58.5,25.5,31.07,North,0,4.0,11.0,28,0.00,,,0.00,meteohub,2013-06-01 19:12:00,
2013-06-01 13:17:00,58.5,26.2,31.07,North,0,7.0,11.0,29,0.00,,,0.00,meteohub,2013-06-01 19:17:00,
2013-06-01 13:22:00,58.6,28.0,31.07,West,270,4.0,8.0,31,0.00,,,0.00,meteohub,2013-06-01 19:22:00,
2013-06-01 13:27:00,59.0,27.7,31.07,North,0,11.0,11.0,30,0.00,,,0.00,meteohub,2013-06-01 19:27:00,
2013-06-01 13:32:00,58.8,25.7,31.07,South,180,4.0,11.0,28,0.00,,,0.00,meteohub,2013-06-01 19:32:00,
2013-06-01 13:37:00,59.0,25.0,31.07,North,0,5.0,11.0,27,0.00,,,0.00,meteohub,2013-06-01 19:37:00,
2013-06-01 13:42:00,59.4,26.2,31.07,NW,315,8.0,11.0,28,0.00,,,0.00,meteohub,2013-06-01 19:42:00,
2013-06-01 13:47:00,59.7,25.7,31.07,North,0,5.0,8.0,27,0.00,,,0.00,meteohub,2013-06-01 19:47:00,
2013-06-01 13:52:00,59.9,26.8,31.07,West,270,4.0,10.0,28,0.00,,,0.00,meteohub,2013-06-01 19:52:00,
2013-06-01 13:57:00,60.1,26.1,31.07,North,0,4.0,10.0,27,0.00,,,0.00,meteohub,2013-06-01 19:57:00,
2013-06-01 14:02:00,60.1,26.1,31.07,South,180,4.0,8.0,27,0.00,,,0.00,meteohub,2013-06-01 20:02:00,
2013-06-01 14:07:00,60.1,26.1,31.07,South,180,4.0,8.0,27,0.00,,,0.00,meteohub,2013-06-01 20:07:00,
2013-06-01 14:12:00,61.3,27.9,31.07,WNW,293,8.0,10.0,28,0.00,,,0.00,meteohub,2013-06-01 20:12:00,
2013-06-01 14:17:00,60.6,25.5,31.07,WNW,293,7.0,10.0,26,0.00,,,0.00,meteohub,2013-06-01 20:17:00,
2013-06-01 14:22:00,59.9,25.0,31.06,North,0,9.0,10.0,26,0.00,,,0.00,meteohub,2013-06-01 20:22:00,
2013-06-01 14:27:00,60.1,27.7,31.06,North,0,8.0,11.0,29,0.00,,,0.00,meteohub,2013-06-01 20:27:00,
2013-06-01 14:32:00,60.3,27.9,31.06,NE,45,10.0,11.0,29,0.00,,,0.00,meteohub,2013-06-01 20:32:00,
2013-06-01 14:37:00,60.1,27.7,31.06,West,270,5.0,11.0,29,0.00,,,0.00,meteohub,2013-06-01 20:37:00,
2013-06-01 14:42:00,60.3,26.1,31.06,North,0,7.0,13.0,27,0.00,,,0.00,meteohub,2013-06-01 20:42:00,
2013-06-01 14:47:00,60.4,28.0,31.06,West,270,6.0,13.0,29,0.00,,,0.00,meteohub,2013-06-01 20:47:00,
2013-06-01 14:52:00,59.9,25.0,31.06,SSW,203,4.0,13.0,26,0.00,,,0.00,meteohub,2013-06-01 20:52:00,
2013-06-01 14:57:00,59.9,27.5,31.06,SE,135,7.0,11.0,29,0.00,,,0.00,meteohub,2013-06-01 20:57:00,
2013-06-01 15:02:00,60.1,27.7,31.06,NW,315,6.0,11.0,29,0.00,,,0.00,meteohub,2013-06-01 21:02:00,
2013-06-01 15:07:00,60.4,28.0,31.06,North,0,8.0,11.0,29,0.00,,,0.00,meteohub,2013-06-01 21:07:00,
2013-06-01 15:12:00,60.6,27.3,31.06,NNE,23,10.0,11.0,28,0.00,,,0.00,meteohub,2013-06-01 21:12:00,
2013-06-01 15:17:00,59.9,27.5,31.06,SW,225,7.0,11.0,29,0.00,,,0.00,meteohub,2013-06-01 21:17:00,
2013-06-01 15:22:00,59.9,25.9,31.06,West,270,3.0,10.0,27,0.00,,,0.00,meteohub,2013-06-01 21:22:00,
2013-06-01 15:27:00,60.3,24.3,31.06,North,0,3.0,10.0,25,0.00,,,0.00,meteohub,2013-06-01 21:27:00,
2013-06-01 15:32:00,60.3,26.1,31.06,SW,225,7.0,8.0,27,0.00,,,0.00,meteohub,2013-06-01 21:32:00,
2013-06-01 15:37:00,60.6,24.6,31.06,SE,135,4.0,9.0,25,0.00,,,0.00,meteohub,2013-06-01 21:37:00,
2013-06-01 15:42:00,60.8,24.8,31.06,NW,315,4.0,9.0,25,0.00,,,0.00,meteohub,2013-06-01 21:42:00,
2013-06-01 15:47:00,61.3,25.2,31.06,NE,45,7.0,8.0,25,0.00,,,0.00,meteohub,2013-06-01 21:47:00,
2013-06-01 15:52:00,61.7,24.6,31.05,North,0,6.0,9.0,24,0.00,,,0.00,meteohub,2013-06-01 21:52:00,
2013-06-01 15:57:00,61.5,23.4,31.06,East,90,7.0,10.0,23,0.00,,,0.00,meteohub,2013-06-01 21:57:00,
2013-06-01 16:02:00,61.3,22.1,31.06,WNW,293,5.0,10.0,22,0.00,,,0.00,meteohub,2013-06-01 22:02:00,
2013-06-01 16:07:00,61.3,22.1,31.06,WNW,293,5.0,8.0,22,0.00,,,0.00,meteohub,2013-06-01 22:07:00,
2013-06-01 16:12:00,61.9,22.6,31.05,NE,45,5.0,8.0,22,0.00,,,0.00,meteohub,2013-06-01 22:12:00,
2013-06-01 16:17:00,61.9,21.6,31.05,WNW,293,8.0,8.0,21,0.00,,,0.00,meteohub,2013-06-01 22:17:00,
2013-06-01 16:21:00,62.1,21.7,31.05,NE,45,7.0,8.0,21,0.00,,,0.00,meteohub,2013-06-01 22:21:00,
2013-06-01 16:27:00,61.9,21.6,31.05,NE,45,6.0,8.0,21,0.00,,,0.00,meteohub,2013-06-01 22:27:00,
2013-06-01 16:32:00,61.9,21.6,31.05,NW,315,6.0,8.0,21,0.00,,,0.00,meteohub,2013-06-01 22:32:00,
2013-06-01 16:37:00,62.1,21.7,31.06,NW,315,7.0,10.0,21,0.00,,,0.00,meteohub,2013-06-01 22:37:00,
2013-06-01 16:42:00,62.2,23.0,31.05,NE,45,8.0,10.0,22,0.00,,,0.00,meteohub,2013-06-01 22:42:00,
2013-06-01 16:47:00,62.8,21.0,31.05,NW,315,8.0,9.0,20,0.00,,,0.00,meteohub,2013-06-01 22:47:00,
2013-06-01 16:52:00,62.4,20.8,31.05,NE,45,6.0,9.0,20,0.00,,,0.00,meteohub,2013-06-01 22:52:00,
2013-06-01 16:57:00,62.2,21.7,31.05,North,0,5.0,9.0,21,0.00,,,0.00,meteohub,2013-06-01 22:57:00,
2013-06-01 17:02:00,62.6,19.8,31.05,NW,315,3.0,9.0,19,0.00,,,0.00,meteohub,2013-06-01 23:02:00,
2013-06-01 17:07:00,62.4,20.8,31.05,NE,45,7.0,8.0,20,0.00,,,0.00,meteohub,2013-06-01 23:07:00,
2013-06-01 17:12:00,62.6,21.0,31.04,NNW,338,4.0,10.0,20,0.00,,,0.00,meteohub,2013-06-01 23:12:00,
2013-06-01 17:17:00,62.4,20.8,31.04,NE,45,5.0,10.0,20,0.00,,,0.00,meteohub,2013-06-01 23:17:00,
2013-06-01 17:22:00,62.2,21.7,31.05,North,0,7.0,10.0,21,0.00,,,0.00,meteohub,2013-06-01 23:22:00,
2013-06-01 17:27:00,62.1,21.7,31.05,North,0,6.0,12.0,21,0.00,,,0.00,meteohub,2013-06-01 23:27:00,
2013-06-01 17:32:00,62.2,21.7,31.05,NW,315,5.0,12.0,21,0.00,,,0.00,meteohub,2013-06-01 23:32:00,
2013-06-01 17:37:00,62.4,23.0,31.05,South,180,3.0,12.0,22,0.00,,,0.00,meteohub,2013-06-01 23:37:00,
2013-06-01 17:42:00,63.0,22.5,31.05,North,0,5.0,8.0,21,0.00,,,0.00,meteohub,2013-06-01 23:42:00,
2013-06-01 17:47:00,63.0,21.2,31.04,South,180,4.0,11.0,20,0.00,,,0.00,meteohub,2013-06-01 23:47:00,
2013-06-01 17:52:00,62.8,21.0,31.05,North,0,7.0,11.0,20,0.00,,,0.00,meteohub,2013-06-01 23:52:00,
2013-06-01 17:57:00,62.2,21.7,31.04,WSW,248,4.0,11.0,21,0.00,,,0.00,meteohub,2013-06-01 23:57:00,
2013-06-01 18:02:00,62.4,23.0,31.04,East,90,6.0,8.0,22,0.00,,,0.00,meteohub,2013-06-02 00:02:00,
2013-06-01 18:07:00,62.4,23.0,31.04,East,90,6.0,8.0,22,0.00,,,0.00,meteohub,2013-06-02 00:07:00,
2013-06-01 18:12:00,62.2,23.0,31.04,NW,315,6.0,8.0,22,0.00,,,0.00,meteohub,2013-06-02 00:12:00,
2013-06-01 18:17:00,62.2,21.7,31.04,North,0,5.0,8.0,21,0.00,,,0.00,meteohub,2013-06-02 00:17:00,
2013-06-01 18:22:00,61.9,21.6,31.04,NW,315,9.0,11.0,21,0.00,,,0.00,meteohub,2013-06-02 00:22:00,
2013-06-01 18:27:00,61.5,22.3,31.04,West,270,4.0,11.0,22,0.00,,,0.00,meteohub,2013-06-02 00:27:00,
2013-06-01 18:33:00,61.3,22.1,31.04,NW,315,6.0,11.0,22,0.00,,,0.00,meteohub,2013-06-02 00:33:00,
2013-06-01 18:42:00,61.2,23.0,31.04,North,0,7.0,11.0,23,0.00,,,0.00,meteohub,2013-06-02 00:42:00,
2013-06-01 18:47:00,61.0,23.9,31.04,North,0,4.0,-999.0,24,0.00,,,0.00,meteohub,2013-06-02 00:47:00,
2013-06-01 18:52:00,60.8,22.8,31.04,West,270,4.0,-999.0,23,0.00,,,0.00,meteohub,2013-06-02 00:52:00,
2013-06-01 18:57:00,60.4,24.4,31.04,North,0,8.0,-999.0,25,0.00,,,0.00,meteohub,2013-06-02 00:57:00,
2013-06-01 19:02:00,59.7,22.8,31.05,West,270,3.0,-999.0,24,0.00,,,0.00,meteohub,2013-06-02 01:02:00,
2013-06-01 19:07:00,59.4,24.4,31.05,NW,315,5.0,-999.0,26,0.00,,,0.00,meteohub,2013-06-02 01:07:00,
2013-06-01 19:12:00,58.8,26.6,31.04,NW,315,8.0,-999.0,29,0.00,,,0.00,meteohub,2013-06-02 01:12:00,
2013-06-01 19:17:00,58.5,23.7,31.05,North,0,6.0,-999.0,26,0.00,,,0.00,meteohub,2013-06-02 01:17:00,
2013-06-01 19:22:00,58.3,24.4,31.04,West,270,5.0,-999.0,27,0.00,,,0.00,meteohub,2013-06-02 01:22:00,
2013-06-01 19:27:00,57.7,24.8,31.04,North,0,8.0,-999.0,28,0.00,,,0.00,meteohub,2013-06-02 01:27:00,
2013-06-01 19:32:00,57.4,25.3,31.05,WNW,293,5.0,-999.0,29,-99.99,,,0.00,meteohub,2013-06-02 01:32:00,
2013-06-01 19:37:00,57.2,26.1,31.05,North,0,6.0,-999.0,30,-99.99,,,0.00,meteohub,2013-06-02 01:37:00,
2013-06-01 19:42:00,56.8,27.3,31.05,North,0,3.0,-999.0,32,-99.99,,,0.00,meteohub,2013-06-02 01:42:00,
2013-06-01 19:47:00,56.5,27.0,31.05,NW,315,6.0,-999.0,32,-99.99,,,0.00,meteohub,2013-06-02 01:47:00,
2013-06-01 19:52:00,56.1,26.6,31.05,North,0,4.0,-999.0,32,-99.99,,,0.00,meteohub,2013-06-02 01:52:00,
2013-06-01 19:57:00,55.8,26.4,31.05,North,0,2.0,-999.0,32,-99.99,,,0.00,meteohub,2013-06-02 01:57:00,
2013-06-01 20:02:00,55.4,26.8,31.06,North,0,4.0,-999.0,33,-99.99,,,0.00,meteohub,2013-06-02 02:02:00,
2013-06-01 20:07:00,55.4,26.8,31.06,North,0,4.0,-999.0,33,-99.99,,,0.00,meteohub,2013-06-02 02:07:00,
2013-06-01 20:12:00,53.8,26.1,31.05,NW,315,0.0,-999.0,34,-99.99,,,0.00,meteohub,2013-06-02 02:12:00,
2013-06-01 20:17:00,53.1,27.5,31.06,NW,315,0.0,-999.0,37,-99.99,,,0.00,meteohub,2013-06-02 02:17:00,
2013-06-01 20:22:00,52.2,27.9,31.05,South,180,1.0,-999.0,39,-99.99,,,0.00,meteohub,2013-06-02 02:22:00,
2013-06-01 20:27:00,51.3,27.7,31.05,South,180,3.0,-999.0,40,-99.99,,,0.00,meteohub,2013-06-02 02:27:00,
2013-06-01 20:32:00,50.4,27.5,31.05,SE,135,1.0,-999.0,41,-99.99,,,0.00,meteohub,2013-06-02 02:32:00,
2013-06-01 20:37:00,49.8,28.2,31.06,East,90,3.0,-999.0,43,-99.99,,,0.00,meteohub,2013-06-02 02:37:00,
2013-06-01 20:42:00,48.7,27.9,31.06,East,90,2.0,-999.0,44,-99.99,,,0.00,meteohub,2013-06-02 02:42:00,
2013-06-01 20:47:00,47.7,27.9,31.06,East,90,3.0,-999.0,46,-99.99,,,0.00,meteohub,2013-06-02 02:47:00,
2013-06-01 20:52:00,46.9,27.7,31.06,East,90,2.0,-999.0,47,-99.99,,,0.00,meteohub,2013-06-02 02:52:00,
2013-06-01 20:57:00,46.4,27.9,31.06,East,90,2.0,-999.0,48,-99.99,,,0.00,meteohub,2013-06-02 02:57:00,
2013-06-01 21:02:00,45.9,27.9,31.07,East,90,3.0,-999.0,49,-99.99,,,0.00,meteohub,2013-06-02 03:02:00,
2013-06-01 21:07:00,45.9,27.9,31.07,East,90,0.0,-999.0,49,-99.99,,,0.00,meteohub,2013-06-02 03:07:00,
2013-06-01 21:12:00,45.5,27.5,31.07,East,90,4.0,-999.0,49,-99.99,,,0.00,meteohub,2013-06-02 03:12:00,
2013-06-01 21:17:00,45.5,27.5,31.07,East,90,2.0,-999.0,49,-99.99,,,0.00,meteohub,2013-06-02 03:17:00,
2013-06-01 21:22:00,45.5,27.9,31.07,East,90,3.0,-999.0,50,-99.99,,,0.00,meteohub,2013-06-02 03:22:00,
2013-06-01 21:27:00,44.8,26.8,31.08,East,90,4.0,-999.0,49,-99.99,,,0.00,meteohub,2013-06-02 03:27:00,
2013-06-01 21:32:00,44.4,27.5,31.08,SE,135,4.0,-999.0,51,-99.99,,,0.00,meteohub,2013-06-02 03:32:00,
2013-06-01 21:37:00,44.2,27.7,31.08,East,90,3.0,-999.0,52,-99.99,,,0.00,meteohub,2013-06-02 03:37:00,
2013-06-01 21:42:00,44.2,27.3,31.08,East,90,1.0,-999.0,51,-99.99,,,0.00,meteohub,2013-06-02 03:42:00,
2013-06-01 21:47:00,44.2,27.3,31.08,SE,135,2.0,-999.0,51,-99.99,,,0.00,meteohub,2013-06-02 03:47:00,
2013-06-01 21:52:00,43.7,27.7,31.08,North,0,3.0,-999.0,53,-99.99,,,0.00,meteohub,2013-06-02 03:52:00,
2013-06-01 21:57:00,43.3,27.9,31.09,NE,45,1.0,-999.0,54,-99.99,,,0.00,meteohub,2013-06-02 03:57:00,
2013-06-01 22:02:00,43.2,27.7,31.08,SW,225,1.0,-999.0,54,-99.99,,,0.00,meteohub,2013-06-02 04:02:00,
2013-06-01 22:07:00,43.2,27.7,31.09,SW,225,1.0,-999.0,54,-99.99,,,0.00,meteohub,2013-06-02 04:07:00,
2013-06-01 22:12:00,42.4,28.2,31.09,NE,45,1.0,-999.0,57,-99.99,,,0.00,meteohub,2013-06-02 04:12:00,
2013-06-01 22:17:00,42.1,27.9,31.09,NE,45,3.0,-999.0,57,-99.99,,,0.00,meteohub,2013-06-02 04:17:00,
2013-06-01 22:22:00,41.7,28.0,31.08,East,90,3.0,-999.0,58,-99.99,,,0.00,meteohub,2013-06-02 04:22:00,
2013-06-01 22:27:00,41.2,27.9,31.08,NE,45,3.0,-999.0,59,-99.99,,,0.00,meteohub,2013-06-02 04:27:00,
2013-06-01 22:32:00,40.8,28.4,31.08,SE,135,2.0,-999.0,61,-99.99,,,0.00,meteohub,2013-06-02 04:32:00,
2013-06-01 22:37:00,40.6,28.2,31.08,East,90,3.0,-999.0,61,-99.99,,,0.00,meteohub,2013-06-02 04:37:00,
2013-06-01 22:42:00,40.3,27.9,31.09,East,90,5.0,-999.0,61,-99.99,,,0.00,meteohub,2013-06-02 04:42:00,
2013-06-01 22:47:00,40.1,27.7,31.09,East,90,4.0,-999.0,61,-99.99,,,0.00,meteohub,2013-06-02 04:47:00,
2013-06-01 22:52:00,39.9,27.5,31.08,SE,135,5.0,-999.0,61,-99.99,,,0.00,meteohub,2013-06-02 04:52:00,
2013-06-01 22:57:00,40.5,28.0,31.08,SE,135,5.0,-999.0,61,-99.99,,,0.00,meteohub,2013-06-02 04:57:00,
2013-06-01 23:02:00,41.4,28.6,31.08,West,270,3.0,-999.0,60,-99.99,,,0.00,meteohub,2013-06-02 05:02:00,
2013-06-01 23:07:00,41.5,28.8,31.08,NE,45,2.0,-999.0,60,-99.99,,,0.00,meteohub,2013-06-02 05:07:00,
2013-06-01 23:12:00,40.8,28.8,31.08,NE,45,2.0,-999.0,62,-99.99,,,0.00,meteohub,2013-06-02 05:12:00,
2013-06-01 23:17:00,40.3,28.2,31.08,East,90,4.0,-999.0,62,-99.99,,,0.00,meteohub,2013-06-02 05:17:00,
2013-06-01 23:22:00,39.9,28.0,31.08,SE,135,1.0,-999.0,62,-99.99,,,0.00,meteohub,2013-06-02 05:22:00,
2013-06-01 23:27:00,39.6,27.7,31.08,South,180,5.0,-999.0,62,-99.99,,,0.00,meteohub,2013-06-02 05:27:00,
2013-06-01 23:32:00,39.9,28.4,31.08,SE,135,5.0,-999.0,63,-99.99,,,0.00,meteohub,2013-06-02 05:32:00,
2013-06-01 23:37:00,41.0,28.9,31.08,South,180,4.0,-999.0,62,-99.99,,,0.00,meteohub,2013-06-02 05:37:00,
2013-06-01 23:42:00,41.4,29.3,31.08,South,180,6.0,-999.0,62,-99.99,,,0.00,meteohub,2013-06-02 05:42:00,
2013-06-01 23:47:00,41.7,29.3,31.08,South,180,6.0,-999.0,61,-99.99,,,0.00,meteohub,2013-06-02 05:47:00,
2013-06-01 23:52:00,41.9,29.5,31.08,South,180,6.0,-999.0,61,-99.99,,,0.00,meteohub,2013-06-02 05:52:00,
2013-06-01 23:57:00,41.9,29.5,31.08,South,180,6.0,-999.0,61,-99.99,,,0.00,meteohub,2013-06-02 05:57:00,